Meteo pe oră la Dzhuryn

Astăzi, 5 Martie, Vineri

Timp Temperatura Precipitaţii Vânt Presiune Umiditate
00:00 +4°C° 0 mm 2 m/s 736 mmHg 85%
01:00 +4°C° 0 mm 2 m/s 737 mmHg 84%
02:00 +4°C° 0 mm 2 m/s 737 mmHg 84%
03:00 +5°C° 0.1 mm 1 m/s 737 mmHg 85%
04:00 +5°C° 0.1 mm 1 m/s 736 mmHg 87%
05:00 +5°C° 0.1 mm 1 m/s 736 mmHg 88%
06:00 +4°C° 0.1 mm 1 m/s 736 mmHg 89%
07:00 +4°C° 0.1 mm 1 m/s 736 mmHg 90%
08:00 +4°C° 0.1 mm 1 m/s 736 mmHg 91%
09:00 +4°C° 0.4 mm 1 m/s 736 mmHg 92%
10:00 +3°C° 0.4 mm 2 m/s 736 mmHg 93%
11:00 +3°C° 0.4 mm 2 m/s 736 mmHg 95%
12:00 +3°C° 0.6 mm 2 m/s 736 mmHg 95%
13:00 +3°C° 0.6 mm 2 m/s 736 mmHg 94%
14:00 +2°C° 0.6 mm 3 m/s 736 mmHg 94%
15:00 +2°C° 0.5 mm 3 m/s 736 mmHg 95%
16:00 0°C° 0.5 mm 4 m/s 736 mmHg 95%
17:00 0°C° 0.5 mm 4 m/s 736 mmHg 96%
18:00 0°C° 0.9 mm 5 m/s 737 mmHg 96%
19:00 -2°C° 0.9 mm 6 m/s 738 mmHg 96%
20:00 -2°C° 0.9 mm 7 m/s 738 mmHg 96%
21:00 -3°C° 0.3 mm 6 m/s 739 mmHg 95%
22:00 -3°C° 0.3 mm 6 m/s 740 mmHg 94%
23:00 -3°C° 0.3 mm 6 m/s 740 mmHg 93%

Mâine, 6 Martie, Sâmbătă

Timp Temperatura Precipitaţii Vânt Presiune Umiditate
00:00 -4°C° 0.1 mm 6 m/s 741 mmHg 90%
01:00 -4°C° 0.1 mm 6 m/s 742 mmHg 87%
02:00 -4°C° 0.1 mm 5 m/s 743 mmHg 84%
03:00 -5°C° 0 mm 5 m/s 743 mmHg 83%
04:00 -5°C° 0 mm 5 m/s 743 mmHg 82%
05:00 -5°C° 0 mm 4 m/s 744 mmHg 81%
06:00 -6°C° 0 mm 5 m/s 744 mmHg 79%
07:00 -6°C° 0 mm 5 m/s 745 mmHg 77%
08:00 -6°C° 0 mm 5 m/s 746 mmHg 75%
09:00 -5°C° 0 mm 5 m/s 746 mmHg 67%
10:00 -3°C° 0 mm 4 m/s 746 mmHg 59%
11:00 -3°C° 0 mm 4 m/s 746 mmHg 51%
12:00 -2°C° 0 mm 4 m/s 746 mmHg 49%
13:00 -1°C° 0 mm 4 m/s 746 mmHg 48%
14:00 -1°C° 0 mm 4 m/s 746 mmHg 46%
15:00 -1°C° 0 mm 4 m/s 747 mmHg 50%
16:00 -1°C° 0 mm 4 m/s 747 mmHg 54%
17:00 -1°C° 0 mm 4 m/s 747 mmHg 58%
18:00 -2°C° 0 mm 4 m/s 747 mmHg 62%
19:00 -2°C° 0 mm 3 m/s 747 mmHg 66%
20:00 -4°C° 0 mm 3 m/s 748 mmHg 70%
21:00 -4°C° 0 mm 3 m/s 748 mmHg 70%
22:00 -4°C° 0 mm 3 m/s 748 mmHg 70%
23:00 -4°C° 0 mm 3 m/s 748 mmHg 70%

Poimâine, 7 Martie, Duminică

Timp Temperatura Precipitaţii Vânt Presiune Umiditate
00:00 -4°C° 0 mm 3 m/s 748 mmHg 70%
01:00 -4°C° 0 mm 3 m/s 748 mmHg 70%
02:00 -4°C° 0 mm 3 m/s 748 mmHg 70%
03:00 -4°C° 0 mm 3 m/s 747 mmHg 71%
04:00 -4°C° 0 mm 4 m/s 747 mmHg 72%
05:00 -4°C° 0 mm 4 m/s 746 mmHg 73%
06:00 -5°C° 0 mm 5 m/s 746 mmHg 70%
07:00 -5°C° 0 mm 5 m/s 746 mmHg 66%
08:00 -4°C° 0 mm 6 m/s 745 mmHg 63%
09:00 -3°C° 0 mm 6 m/s 745 mmHg 57%
10:00 -2°C° 0 mm 7 m/s 744 mmHg 52%
11:00 -1°C° 0 mm 7 m/s 744 mmHg 46%
12:00 0°C° 0 mm 7 m/s 743 mmHg 45%
13:00 0°C° 0 mm 7 m/s 743 mmHg 45%
14:00 +2°C° 0 mm 7 m/s 742 mmHg 44%
15:00 0°C° 0 mm 7 m/s 742 mmHg 48%
16:00 +1°C° 0 mm 6 m/s 741 mmHg 52%
17:00 +1°C° 0 mm 5 m/s 741 mmHg 56%
18:00 0°C° 0 mm 5 m/s 741 mmHg 59%
19:00 -1°C° 0 mm 5 m/s 741 mmHg 63%
20:00 -2°C° 0 mm 5 m/s 741 mmHg 66%
21:00 -2°C° 0 mm 4 m/s 740 mmHg 67%
22:00 -2°C° 0 mm 4 m/s 740 mmHg 68%
23:00 -2°C° 0 mm 4 m/s 740 mmHg 69%

8 Martie, Luni

Timp Temperatura Precipitaţii Vânt Presiune Umiditate
00:00 -3°C° 0 mm 4 m/s 740 mmHg 70%
01:00 -3°C° 0 mm 4 m/s 740 mmHg 72%
02:00 -2°C° 0 mm 3 m/s 739 mmHg 74%
03:00 -2°C° 0 mm 3 m/s 739 mmHg 73%
04:00 -3°C° 0 mm 4 m/s 739 mmHg 73%
05:00 -3°C° 0 mm 4 m/s 738 mmHg 73%
06:00 -3°C° 0 mm 4 m/s 738 mmHg 69%
07:00 -2°C° 0 mm 4 m/s 738 mmHg 66%
08:00 -2°C° 0 mm 5 m/s 738 mmHg 62%
09:00 -1°C° 0 mm 5 m/s 738 mmHg 58%
10:00 +1°C° 0 mm 5 m/s 738 mmHg 54%
11:00 +2°C° 0 mm 6 m/s 738 mmHg 49%
12:00 +2°C° 0 mm 6 m/s 738 mmHg 49%
13:00 +3°C° 0 mm 6 m/s 737 mmHg 50%
14:00 +3°C° 0 mm 6 m/s 737 mmHg 50%
15:00 +2°C° 0 mm 5 m/s 737 mmHg 55%
16:00 +2°C° 0 mm 5 m/s 737 mmHg 61%
17:00 +1°C° 0 mm 4 m/s 736 mmHg 67%
18:00 0°C° 0 mm 4 m/s 737 mmHg 73%
19:00 0°C° 0 mm 3 m/s 737 mmHg 79%
20:00 -1°C° 0 mm 3 m/s 738 mmHg 85%
21:00 -2°C° 0.1 mm 4 m/s 738 mmHg 86%
22:00 -3°C° 0.1 mm 4 m/s 739 mmHg 87%
23:00 -4°C° 0.1 mm 5 m/s 739 mmHg 87%

9 Martie, Marţi

Timp Temperatura Precipitaţii Vânt Presiune Umiditate
00:00 -5°C° 0 mm 5 m/s 740 mmHg 86%
01:00 -4°C° 0 mm 4 m/s 740 mmHg 85%
02:00 -5°C° 0 mm 4 m/s 740 mmHg 84%
03:00 -5°C° 0 mm 4 m/s 741 mmHg 83%
04:00 -5°C° 0 mm 4 m/s 741 mmHg 82%
05:00 -5°C° 0 mm 4 m/s 741 mmHg 80%
06:00 -6°C° 0 mm 5 m/s 741 mmHg 77%
07:00 -6°C° 0 mm 5 m/s 742 mmHg 74%
08:00 -6°C° 0 mm 5 m/s 742 mmHg 70%
09:00 -5°C° 0 mm 5 m/s 742 mmHg 65%
10:00 -5°C° 0 mm 5 m/s 742 mmHg 60%
11:00 -4°C° 0 mm 5 m/s 743 mmHg 55%
12:00 -4°C° 0 mm 5 m/s 743 mmHg 52%
13:00 -4°C° 0 mm 5 m/s 743 mmHg 49%
14:00 -2°C° 0 mm 5 m/s 743 mmHg 46%
15:00 -4°C° 0 mm 5 m/s 744 mmHg 48%
16:00 -4°C° 0 mm 5 m/s 744 mmHg 51%
17:00 -5°C° 0 mm 5 m/s 744 mmHg 53%
18:00 -4°C° 0 mm 4 m/s 744 mmHg 57%
19:00 -5°C° 0 mm 4 m/s 745 mmHg 61%
20:00 -7°C° 0 mm 4 m/s 745 mmHg 64%
21:00 -7°C° 0 mm 4 m/s 746 mmHg 63%
22:00 -7°C° 0 mm 4 m/s 746 mmHg 61%
23:00 -7°C° 0 mm 4 m/s 747 mmHg 59%

10 Martie, Miercuri

Timp Temperatura Precipitaţii Vânt Presiune Umiditate
00:00 -8°C° 0 mm 4 m/s 747 mmHg 58%
01:00 -8°C° 0 mm 4 m/s 747 mmHg 57%
02:00 -8°C° 0 mm 4 m/s 748 mmHg 56%
03:00 -8°C° 0 mm 4 m/s 748 mmHg 56%
04:00 -9°C° 0 mm 4 m/s 748 mmHg 55%
05:00 -9°C° 0 mm 4 m/s 748 mmHg 55%
06:00 -8°C° 0 mm 3 m/s 749 mmHg 55%
07:00 -8°C° 0 mm 3 m/s 749 mmHg 55%
08:00 -8°C° 0 mm 3 m/s 749 mmHg 55%
09:00 -8°C° 0 mm 3 m/s 750 mmHg 50%
10:00 -7°C° 0 mm 3 m/s 750 mmHg 44%
11:00 -6°C° 0 mm 3 m/s 750 mmHg 38%
12:00 -4°C° 0 mm 2 m/s 750 mmHg 36%
13:00 -4°C° 0 mm 2 m/s 750 mmHg 33%
14:00 -3°C° 0 mm 2 m/s 750 mmHg 31%
15:00 -3°C° 0 mm 2 m/s 750 mmHg 31%
16:00 -1°C° 0 mm 1 m/s 750 mmHg 32%
17:00 -1°C° 0 mm 1 m/s 749 mmHg 32%
18:00 -2°C° 0 mm 1 m/s 750 mmHg 35%
19:00 -2°C° 0 mm 1 m/s 750 mmHg 39%
20:00 -3°C° 0 mm 1 m/s 750 mmHg 42%
21:00 -3°C° 0 mm 1 m/s 750 mmHg 43%
22:00 -3°C° 0 mm 1 m/s 750 mmHg 44%
23:00 -5°C° 0 mm 2 m/s 750 mmHg 44%
Arată mai mult

Formular de consimțământ

Meteoprog și furnizorii noștri de servicii pot stoca și accesa date personale, precum cookies, identificatori de dispozitiv sau alte tehnologii similare pe dispozitivul dumneavoastră și procesa astfel de date pentru a personaliza conținutul și reclamele, dar și pentru a oferi caracteristici de social media și pentru a analiza traficul.

  • Stocarea și/sau accesarea informațiilor pe dispozitivul dumneavoastră

    Cookies, identificatori de dispozitiv sau alte informații pot fi stocate sau accesate pe dispozitiv în scopurile indicate mai sus.

  • Reclame și conținut personalizat, evaluarea reclamelor și a conținutului, informații despre audiențe și dezvoltarea produselor

    Reclamele și conținutul pot fi personalizate pe baza unui profil. Pot fi adăugate date suplimentare pentru a personaliza mai bine reclamele și conținutul. Performanța reclamelor și conținutului poate fi măsurată. Pot fi obținute informații despre utilizatorii care au văzut reclamele și conținutul. Aceste date pot fi utilizate pentru a dezvolta sau îmbunătăți experiența utilizatorilor, sistemele și software-ul.

Dând clic pe ‘Sunt de acord’, permiteți utilizarea cookie-urilor menționate, a identificatorilor de dispozitiv, balizelor web sau altor tehnologii similare. Setările pot fi modificate din browser-ul dispozitivului dumneavoastră.

În anumite scopuri, interesele legitime pot prima asupra consimțământului. Puteți citi mai multe informații în acest sens în Politica privind Confidențialitatea Datelor și Cookie.